Weather History for Eugene, OR

Change the Weather History Date:

Wednesday, December 26, 2012

  Actual Average Record
Temperature  
Mean Temperature 43 °F 39 °F  
Max Temperature 49 °F 45 °F 62 °F (1933)
Min Temperature 37 °F 33 °F 1 °F (1924)
Degree Days  
Heating Degree Days 22 26  
Month to date heating degree days 567 657  
Since 1 July heating degree days 1494 1830  
Cooling Degree Days 0 0  
Month to date cooling degree days 0 0  
Year to date cooling degree days 230 239  
Moisture  
Dew Point 40 °F    
Average Humidity 88    
Maximum Humidity 100    
Minimum Humidity 76    
Precipitation  
Precipitation 0.01 in 0.22 in 1.80 in (1907)
Month to date precipitation 7.42 6.70  
Year to date precipitation 50.16 44.97  
Snow  
Snow 0.00 in - - ()
Month to date snowfall 0.0  
Since 1 July snowfall 0.0  
Snow Depth 0.00 in    
Sea Level Pressure  
Sea Level Pressure 29.88 in    
Wind  
Wind Speed 7 mph (SSW)    
Max Wind Speed 13 mph    
Max Gust Speed 15 mph    
Visibility 10 miles    
Events Rain    
T = Trace of Precipitation, MM = Missing Value Source: NWS Daily Summary

Daily Weather History Graph

Daily Weather History Graph

Search for Another Location

Airport:

Trip Planner

Search our weather history database for the weather conditions in past years. The results will help you decide how hot, cold, wet, or windy it might be!

Date:

Astronomy

Dec. 26, 2012 Rise Set
Actual Time 7:47 AM PST 4:40 PM PST
Civil Twilight 7:13 AM PST 5:13 PM PST
Nautical Twilight 6:37 AM PST 5:50 PM PST
Astronomical Twilight 6:02 AM PST 6:25 PM PST
Moon 3:39 PM PST (12/26) 6:14 AM PST (12/26)
Length of Visible Light 9h 59m
Length of Day
8h 53m
Waxing Gibbous, 98% of the Moon is Illuminated
Dec 26
Waxing Gibbous
Dec 28
Full
Jan 4
Last Quarter
Jan 11
New
Jan 18
First Quarter

Hourly Weather History & Observations

Time (PST) Temp. Windchill Dew Point Humidity Pressure Visibility Wind Dir Wind Speed Gust Speed Precip Events Conditions
12:54 AM 42.8 °F 38.0 °F 39.2 °F 87% 29.72 in 10.0 mi SSE 8.1 mph - N/A   Mostly Cloudy
1:54 AM 42.1 °F 37.7 °F 41.0 °F 96% 29.73 in 10.0 mi SSE 6.9 mph - 0.00 in   Overcast
2:54 AM 42.8 °F 39.3 °F 41.0 °F 93% 29.74 in 10.0 mi SSE 5.8 mph - N/A   Overcast
3:11 AM 42.8 °F 40.1 °F 41.0 °F 93% 29.74 in 10.0 mi SE 4.6 mph - 0.00 in Rain Light Rain
3:50 AM 41.0 °F 36.4 °F 39.2 °F 93% 29.74 in 10.0 mi SSE 6.9 mph - 0.00 in   Mostly Cloudy
3:54 AM 41.0 °F 36.4 °F 39.9 °F 96% 29.75 in 10.0 mi South 6.9 mph - 0.00 in   Mostly Cloudy
4:54 AM 39.0 °F 35.7 °F 37.9 °F 96% 29.75 in 10.0 mi SE 4.6 mph - N/A   Mostly Cloudy
5:54 AM 39.9 °F 36.7 °F 39.0 °F 97% 29.78 in 10.0 mi SSE 4.6 mph - N/A   Overcast
6:25 AM 39.2 °F - 37.4 °F 93% 29.78 in 10.0 mi Calm Calm - N/A   Overcast
6:54 AM 39.0 °F 34.8 °F 37.9 °F 96% 29.80 in 10.0 mi South 5.8 mph - N/A   Mostly Cloudy
7:33 AM 39.2 °F 34.2 °F 39.2 °F 100% 29.80 in 10.0 mi SSE 6.9 mph - N/A   Overcast
7:54 AM 41.0 °F 37.1 °F 39.9 °F 96% 29.81 in 10.0 mi South 5.8 mph - N/A   Overcast
8:54 AM 42.1 °F 39.2 °F 41.0 °F 96% 29.83 in 10.0 mi South 4.6 mph - N/A   Mostly Cloudy
9:54 AM 45.0 °F 39.7 °F 42.1 °F 90% 29.87 in 10.0 mi SSW 10.4 mph - N/A   Mostly Cloudy
10:54 AM 46.0 °F 41.4 °F 43.0 °F 89% 29.88 in 10.0 mi SW 9.2 mph - 0.00 in   Mostly Cloudy
11:54 AM 46.9 °F - 43.0 °F 86% 29.89 in 10.0 mi SW 10.4 mph - N/A   Mostly Cloudy
12:23 PM 48.2 °F - 42.8 °F 82% 29.89 in 10.0 mi WSW 9.2 mph - N/A   Mostly Cloudy
12:54 PM 48.0 °F - 42.1 °F 80% 29.90 in 10.0 mi West 10.4 mph - N/A   Mostly Cloudy
1:54 PM 48.0 °F - 42.1 °F 80% 29.91 in 10.0 mi WSW 5.8 mph - N/A   Mostly Cloudy
2:54 PM 46.0 °F 41.4 °F 39.9 °F 79% 29.94 in 10.0 mi West 9.2 mph - 0.00 in   Overcast
3:54 PM 45.0 °F 40.6 °F 39.9 °F 82% 29.96 in 10.0 mi WSW 8.1 mph - 0.00 in Rain Light Rain
4:54 PM 42.8 °F 38.0 °F 39.2 °F 87% 29.97 in 10.0 mi WSW 8.1 mph - N/A   Mostly Cloudy
5:54 PM 43.0 °F 38.8 °F 39.9 °F 89% 29.99 in 10.0 mi WSW 6.9 mph - N/A   Overcast
6:54 PM 42.1 °F 37.7 °F 39.9 °F 92% 30.01 in 10.0 mi SW 6.9 mph - N/A   Overcast
7:54 PM 43.0 °F 38.8 °F 39.9 °F 89% 30.03 in 10.0 mi SW 6.9 mph - N/A   Overcast
8:54 PM 42.1 °F 38.4 °F 39.9 °F 92% 30.04 in 10.0 mi SW 5.8 mph - N/A   Overcast
9:54 PM 42.1 °F 37.1 °F 39.9 °F 92% 30.06 in 10.0 mi SW 8.1 mph - 0.00 in   Overcast
10:54 PM 41.0 °F 39.0 °F 39.0 °F 93% 30.08 in 10.0 mi SW 3.5 mph - N/A   Overcast
11:54 PM 41.0 °F 36.4 °F 39.9 °F 96% 30.08 in 10.0 mi SSW 6.9 mph - 0.01 in   Overcast